Year,Month,Day,Hour,Minute,Value (Times are PST for windgust in km/hr)
2014,04,28,00,02,3.20
2014,04,28,00,03,1.60
2014,04,28,00,05,1.60
2014,04,28,00,06,3.20
2014,04,28,00,12,3.20
2014,04,28,00,13,1.60
2014,04,28,00,14,1.60
2014,04,28,00,17,1.60
2014,04,28,00,24,1.60
2014,04,28,00,26,1.60
2014,04,28,00,28,3.20
2014,04,28,00,29,4.80
2014,04,28,00,30,4.80
2014,04,28,00,31,3.20
2014,04,28,00,32,3.20
2014,04,28,00,33,3.20
2014,04,28,00,34,6.40
2014,04,28,00,35,6.40
2014,04,28,00,36,6.40
2014,04,28,00,37,4.80
2014,04,28,00,38,8.10
2014,04,28,00,40,3.20
2014,04,28,00,41,1.60
2014,04,28,00,42,3.20
2014,04,28,00,43,3.20
2014,04,28,00,47,1.60
2014,04,28,00,53,3.20
2014,04,28,00,54,4.80
2014,04,28,00,55,3.20
2014,04,28,00,56,1.60
2014,04,28,01,40,1.60
2014,04,28,01,41,3.20
2014,04,28,01,46,3.20
2014,04,28,01,47,1.60
2014,04,28,02,13,4.80
2014,04,28,02,14,4.80
2014,04,28,02,15,3.20
2014,04,28,02,33,3.20
2014,04,28,02,34,3.20
2014,04,28,02,48,1.60
2014,04,28,02,49,1.60
2014,04,28,02,50,1.60
2014,04,28,02,51,3.20
2014,04,28,03,08,3.20
2014,04,28,03,12,1.60
2014,04,28,03,26,1.60
2014,04,28,03,37,3.20
2014,04,28,04,09,3.20
2014,04,28,04,10,3.20
2014,04,28,04,11,3.20
2014,04,28,04,18,1.60
2014,04,28,04,19,4.80
2014,04,28,04,20,6.40
2014,04,28,04,21,3.20
2014,04,28,04,22,1.60
2014,04,28,04,24,1.60
2014,04,28,04,25,1.60
2014,04,28,04,29,3.20
2014,04,28,04,32,3.20
2014,04,28,04,33,1.60
2014,04,28,04,46,1.60
2014,04,28,04,48,1.60
2014,04,28,04,56,1.60
2014,04,28,05,15,1.60
2014,04,28,05,19,1.60
2014,04,28,05,20,1.60
2014,04,28,05,21,1.60
2014,04,28,05,34,1.60
2014,04,28,07,21,1.60
2014,04,28,07,22,1.60
2014,04,28,07,29,4.80
2014,04,28,07,30,1.60
2014,04,28,07,31,4.80
2014,04,28,07,32,4.80
2014,04,28,07,33,1.60
2014,04,28,07,35,3.20
2014,04,28,07,36,3.20
2014,04,28,07,37,3.20
2014,04,28,07,38,1.60
2014,04,28,07,39,4.80
2014,04,28,07,40,1.60
2014,04,28,07,41,3.20
2014,04,28,07,42,4.80
2014,04,28,07,43,3.20
2014,04,28,07,44,3.20
2014,04,28,07,45,3.20
2014,04,28,07,46,4.80
2014,04,28,07,47,3.20
2014,04,28,07,48,1.60
2014,04,28,07,50,1.60
2014,04,28,07,51,3.20
2014,04,28,07,52,1.60
2014,04,28,07,53,4.80
2014,04,28,07,54,3.20
2014,04,28,07,57,3.20
2014,04,28,07,58,1.60
2014,04,28,07,59,1.60
2014,04,28,08,00,1.60
2014,04,28,08,01,3.20
2014,04,28,08,02,3.20
2014,04,28,08,03,3.20
2014,04,28,08,04,3.20
2014,04,28,08,05,4.80
2014,04,28,08,06,3.20
2014,04,28,08,07,3.20
2014,04,28,08,08,3.20
2014,04,28,08,09,1.60
2014,04,28,08,10,4.80
2014,04,28,08,11,3.20
2014,04,28,08,12,8.10
2014,04,28,08,13,8.10
2014,04,28,08,14,6.40
2014,04,28,08,15,3.20
2014,04,28,08,16,4.80
2014,04,28,08,17,4.80
2014,04,28,08,18,6.40
2014,04,28,08,19,8.10
2014,04,28,08,20,8.10
2014,04,28,08,21,4.80
2014,04,28,08,22,6.40
2014,04,28,08,23,8.10
2014,04,28,08,24,4.80
2014,04,28,08,25,6.40
2014,04,28,08,26,6.40
2014,04,28,08,27,6.40
2014,04,28,08,28,6.40
2014,04,28,08,29,4.80
2014,04,28,08,30,1.60
2014,04,28,08,31,4.80
2014,04,28,08,32,4.80
2014,04,28,08,33,4.80
2014,04,28,08,34,4.80
2014,04,28,08,35,6.40
2014,04,28,08,36,8.10
2014,04,28,08,37,4.80
2014,04,28,08,38,9.60
2014,04,28,08,39,6.40
2014,04,28,08,40,6.40
2014,04,28,08,41,8.10
2014,04,28,08,42,8.10
2014,04,28,08,43,9.60
2014,04,28,08,44,11.30
2014,04,28,08,45,4.80
2014,04,28,08,46,6.40
2014,04,28,08,47,6.40
2014,04,28,08,48,1.60
2014,04,28,08,49,6.40
2014,04,28,08,50,9.60
2014,04,28,08,51,4.80
2014,04,28,08,52,3.20
2014,04,28,08,53,9.60
2014,04,28,08,54,8.10
2014,04,28,08,55,8.10
2014,04,28,08,56,12.90
2014,04,28,08,57,8.10
2014,04,28,08,58,8.10
2014,04,28,08,59,8.10
2014,04,28,09,00,4.80
2014,04,28,09,01,1.60
2014,04,28,09,02,6.40
2014,04,28,09,03,8.10
2014,04,28,09,04,9.60
2014,04,28,09,05,8.10
2014,04,28,09,06,16.10
2014,04,28,09,07,8.10
2014,04,28,09,08,4.80
2014,04,28,09,09,6.40
2014,04,28,09,10,4.80
2014,04,28,09,11,6.40
2014,04,28,09,12,8.10
2014,04,28,09,13,9.60
2014,04,28,09,14,9.60
2014,04,28,09,15,9.60
2014,04,28,09,16,8.10
2014,04,28,09,17,9.60
2014,04,28,09,18,8.10
2014,04,28,09,19,4.80
2014,04,28,09,20,4.80
2014,04,28,09,21,9.60
2014,04,28,09,22,11.30
2014,04,28,09,23,11.30
2014,04,28,09,24,16.10
2014,04,28,09,25,14.50
2014,04,28,09,26,8.10
2014,04,28,09,27,4.80
2014,04,28,09,28,8.10
2014,04,28,09,29,8.10
2014,04,28,09,30,4.80
2014,04,28,09,31,9.60
2014,04,28,09,32,8.10
2014,04,28,09,33,14.50
2014,04,28,09,34,11.30
2014,04,28,09,35,4.80
2014,04,28,09,36,6.40
2014,04,28,09,37,8.10
2014,04,28,09,38,6.40
2014,04,28,09,39,9.60
2014,04,28,09,40,8.10
2014,04,28,09,41,14.50
2014,04,28,09,42,17.70
2014,04,28,09,43,11.30
2014,04,28,09,44,8.10
2014,04,28,09,45,11.30
2014,04,28,09,46,16.10
2014,04,28,09,47,11.30
2014,04,28,09,48,14.50
2014,04,28,09,49,6.40
2014,04,28,09,50,6.40
2014,04,28,09,51,11.30
2014,04,28,09,52,9.60
2014,04,28,09,53,11.30
2014,04,28,09,54,11.30
2014,04,28,09,55,11.30
2014,04,28,09,56,8.10
2014,04,28,09,57,6.40
2014,04,28,09,58,11.30
2014,04,28,09,59,14.50
2014,04,28,10,00,11.30
2014,04,28,10,01,9.60
2014,04,28,10,02,9.60
2014,04,28,10,03,16.10
2014,04,28,10,04,9.60
2014,04,28,10,05,8.10
2014,04,28,10,06,4.80
2014,04,28,10,07,8.10
2014,04,28,10,08,8.10
2014,04,28,10,09,9.60
2014,04,28,10,10,14.50
2014,04,28,10,11,16.10
2014,04,28,10,12,9.60
2014,04,28,10,13,17.70
2014,04,28,10,14,9.60
2014,04,28,10,15,8.10
2014,04,28,10,16,6.40
2014,04,28,10,17,8.10
2014,04,28,10,18,8.10
2014,04,28,10,19,19.30
2014,04,28,10,20,17.70
2014,04,28,10,21,11.30
2014,04,28,10,22,9.60
2014,04,28,10,23,4.80
2014,04,28,10,24,16.10
2014,04,28,10,25,16.10
2014,04,28,10,26,19.30
2014,04,28,10,27,16.10
2014,04,28,10,28,19.30
2014,04,28,10,29,16.10
2014,04,28,10,30,20.90
2014,04,28,10,31,9.60
2014,04,28,10,32,11.30
2014,04,28,10,33,8.10
2014,04,28,10,34,9.60
2014,04,28,10,35,8.10
2014,04,28,10,36,14.50
2014,04,28,10,37,8.10
2014,04,28,10,38,9.60
2014,04,28,10,39,20.90
2014,04,28,10,40,9.60
2014,04,28,10,41,11.30
2014,04,28,10,42,11.30
2014,04,28,10,43,9.60
2014,04,28,10,44,9.60
2014,04,28,10,45,12.90
2014,04,28,10,46,16.10
2014,04,28,10,47,16.10
2014,04,28,10,48,6.40
2014,04,28,10,49,11.30
2014,04,28,10,50,16.10
2014,04,28,10,51,17.70
2014,04,28,10,52,17.70
2014,04,28,10,53,17.70
2014,04,28,10,54,20.90
2014,04,28,10,55,16.10
2014,04,28,10,56,19.30
2014,04,28,10,57,16.10
2014,04,28,10,58,16.10
2014,04,28,10,59,14.50
2014,04,28,11,00,11.30
2014,04,28,11,01,19.30
2014,04,28,11,02,11.30
2014,04,28,11,03,8.10
2014,04,28,11,04,3.20
2014,04,28,11,05,11.30
2014,04,28,11,06,9.60
2014,04,28,11,07,11.30
2014,04,28,11,08,11.30
2014,04,28,11,09,17.70
2014,04,28,11,10,17.70
2014,04,28,11,11,17.70
2014,04,28,11,12,12.90
2014,04,28,11,13,17.70
2014,04,28,11,14,11.30
2014,04,28,11,15,16.10
2014,04,28,11,16,11.30
2014,04,28,11,17,20.90
2014,04,28,11,18,16.10
2014,04,28,11,19,16.10
2014,04,28,11,20,12.90
2014,04,28,11,21,12.90
2014,04,28,11,22,6.40
2014,04,28,11,23,17.70
2014,04,28,11,24,16.10
2014,04,28,11,25,14.50
2014,04,28,11,26,17.70
2014,04,28,11,27,20.90
2014,04,28,11,28,14.50
2014,04,28,11,29,17.70
2014,04,28,11,30,16.10
2014,04,28,11,31,16.10
2014,04,28,11,32,19.30
2014,04,28,11,33,19.30
2014,04,28,11,34,20.90
2014,04,28,11,35,16.10
2014,04,28,11,36,20.90
2014,04,28,11,37,17.70
2014,04,28,11,38,19.30
2014,04,28,11,39,17.70
2014,04,28,11,40,22.50
2014,04,28,11,41,19.30
2014,04,28,11,42,14.50
2014,04,28,11,43,20.90
2014,04,28,11,44,20.90
2014,04,28,11,45,19.30
2014,04,28,11,46,22.50
2014,04,28,11,47,20.90
2014,04,28,11,48,19.30
2014,04,28,11,49,19.30
2014,04,28,11,50,22.50
2014,04,28,11,51,19.30
2014,04,28,11,52,19.30
2014,04,28,11,53,22.50
2014,04,28,11,54,17.70
2014,04,28,11,55,17.70
2014,04,28,11,56,9.60
2014,04,28,11,57,11.30
2014,04,28,11,58,16.10
2014,04,28,11,59,16.10
2014,04,28,12,00,19.30
2014,04,28,12,01,19.30
2014,04,28,12,02,16.10
2014,04,28,12,03,14.50
2014,04,28,12,04,16.10
2014,04,28,12,05,25.70
2014,04,28,12,06,19.30
2014,04,28,12,07,19.30
2014,04,28,12,08,19.30
2014,04,28,12,09,19.30
2014,04,28,12,10,22.50
2014,04,28,12,11,19.30
2014,04,28,12,12,22.50
2014,04,28,12,13,19.30
2014,04,28,12,14,22.50
2014,04,28,12,15,19.30
2014,04,28,12,16,24.20
2014,04,28,12,17,19.30
2014,04,28,12,18,14.50
2014,04,28,12,19,17.70
2014,04,28,12,20,8.10
2014,04,28,12,21,17.70
2014,04,28,12,22,19.30
2014,04,28,12,23,17.70
2014,04,28,12,24,19.30
2014,04,28,12,25,19.30
2014,04,28,12,26,16.10
2014,04,28,12,27,11.30
2014,04,28,12,28,11.30
2014,04,28,12,29,19.30
2014,04,28,12,30,14.50
2014,04,28,12,31,16.10
2014,04,28,12,32,17.70
2014,04,28,12,33,17.70
2014,04,28,12,34,11.30
2014,04,28,12,35,9.60
2014,04,28,12,36,14.50
2014,04,28,12,37,17.70
2014,04,28,12,38,14.50
2014,04,28,12,39,11.30
2014,04,28,12,40,22.50
2014,04,28,12,41,14.50
2014,04,28,12,42,22.50
2014,04,28,12,43,24.20
2014,04,28,12,44,16.10
2014,04,28,12,45,17.70
2014,04,28,12,46,16.10
2014,04,28,12,47,14.50
2014,04,28,12,48,14.50
2014,04,28,12,49,9.60
2014,04,28,12,50,11.30
2014,04,28,12,51,14.50
2014,04,28,12,52,20.90
2014,04,28,12,53,16.10
2014,04,28,12,54,16.10
2014,04,28,12,55,19.30
2014,04,28,12,56,19.30
2014,04,28,12,57,9.60
2014,04,28,12,58,11.30
2014,04,28,12,59,11.30
2014,04,28,13,00,11.30
2014,04,28,13,01,19.30
2014,04,28,13,02,11.30
2014,04,28,13,03,11.30
2014,04,28,13,04,16.10
2014,04,28,13,05,14.50
2014,04,28,13,06,16.10
2014,04,28,13,07,22.50
2014,04,28,13,08,11.30
2014,04,28,13,09,16.10
2014,04,28,13,10,25.70
2014,04,28,13,11,19.30
2014,04,28,13,12,11.30
2014,04,28,13,13,11.30
2014,04,28,13,14,11.30
2014,04,28,13,15,17.70
2014,04,28,13,16,22.50
2014,04,28,13,17,9.60
2014,04,28,13,18,11.30
2014,04,28,13,19,14.50
2014,04,28,13,20,11.30
2014,04,28,13,21,14.50
2014,04,28,13,22,14.50
2014,04,28,13,23,12.90
2014,04,28,13,24,11.30
2014,04,28,13,25,25.70
2014,04,28,13,26,22.50
2014,04,28,13,27,14.50
2014,04,28,13,28,19.30
2014,04,28,13,29,19.30
2014,04,28,13,30,17.70
2014,04,28,13,31,11.30
2014,04,28,13,32,14.50
2014,04,28,13,33,12.90
2014,04,28,13,34,22.50
2014,04,28,13,35,14.50
2014,04,28,13,36,19.30
2014,04,28,13,37,16.10
2014,04,28,13,38,16.10
2014,04,28,13,39,16.10
2014,04,28,13,40,11.30
2014,04,28,13,41,6.40
2014,04,28,13,42,6.40
2014,04,28,13,43,6.40
2014,04,28,13,44,11.30
2014,04,28,13,45,14.50
2014,04,28,13,46,20.90
2014,04,28,13,47,17.70
2014,04,28,13,48,14.50
2014,04,28,13,49,17.70
2014,04,28,13,50,19.30
2014,04,28,13,51,16.10
2014,04,28,13,52,20.90
2014,04,28,13,53,11.30
2014,04,28,13,54,9.60
2014,04,28,13,55,9.60
2014,04,28,13,56,4.80
2014,04,28,13,57,19.30
2014,04,28,13,58,11.30
2014,04,28,13,59,11.30
2014,04,28,14,00,8.10
2014,04,28,14,01,11.30
2014,04,28,14,02,14.50
2014,04,28,14,03,11.30
2014,04,28,14,04,11.30
2014,04,28,14,05,14.50
2014,04,28,14,06,11.30
2014,04,28,14,07,16.10
2014,04,28,14,08,4.80
2014,04,28,14,09,4.80
2014,04,28,14,10,9.60
2014,04,28,14,11,9.60
2014,04,28,14,12,24.20
2014,04,28,14,13,20.90
2014,04,28,14,14,17.70
2014,04,28,14,15,19.30
2014,04,28,14,16,14.50
2014,04,28,14,17,12.90
2014,04,28,14,18,14.50
2014,04,28,14,19,11.30
2014,04,28,14,20,16.10
2014,04,28,14,21,11.30
2014,04,28,14,22,8.10
2014,04,28,14,23,9.60
2014,04,28,14,24,16.10
2014,04,28,14,25,9.60
2014,04,28,14,26,11.30
2014,04,28,14,27,20.90
2014,04,28,14,28,22.50
2014,04,28,14,29,24.20
2014,04,28,14,30,11.30
2014,04,28,14,31,16.10
2014,04,28,14,32,16.10
2014,04,28,14,33,16.10
2014,04,28,14,34,14.50
2014,04,28,14,35,17.70
2014,04,28,14,36,17.70
2014,04,28,14,37,24.20
2014,04,28,14,38,22.50
2014,04,28,14,39,20.90
2014,04,28,14,40,11.30
2014,04,28,14,41,14.50
2014,04,28,14,42,19.30
2014,04,28,14,43,17.70
2014,04,28,14,44,27.40
2014,04,28,14,45,22.50
2014,04,28,14,46,27.40
2014,04,28,14,47,22.50
2014,04,28,14,48,24.20
2014,04,28,14,49,24.20
2014,04,28,14,50,22.50
2014,04,28,14,51,20.90
2014,04,28,14,52,19.30
2014,04,28,14,53,25.70
2014,04,28,14,54,19.30
2014,04,28,14,55,19.30
2014,04,28,14,56,20.90
2014,04,28,14,57,19.30
2014,04,28,14,58,9.60
2014,04,28,14,59,12.90
2014,04,28,15,00,19.30
2014,04,28,15,01,19.30
2014,04,28,15,02,25.70
2014,04,28,15,03,22.50
2014,04,28,15,04,14.50
2014,04,28,15,05,17.70
2014,04,28,15,06,19.30
2014,04,28,15,07,27.40
2014,04,28,15,08,27.40
2014,04,28,15,09,22.50
2014,04,28,15,10,22.50
2014,04,28,15,11,20.90
2014,04,28,15,12,29.00
2014,04,28,15,13,19.30
2014,04,28,15,14,14.50
2014,04,28,15,15,27.40
2014,04,28,15,16,22.50
2014,04,28,15,17,24.20
2014,04,28,15,18,17.70
2014,04,28,15,19,20.90
2014,04,28,15,20,25.70
2014,04,28,15,21,11.30
2014,04,28,15,22,20.90
2014,04,28,15,23,16.10
2014,04,28,15,24,14.50
2014,04,28,15,25,14.50
2014,04,28,15,26,14.50
2014,04,28,15,27,17.70
2014,04,28,15,28,17.70
2014,04,28,15,29,16.10
2014,04,28,15,30,22.50
2014,04,28,15,31,14.50
2014,04,28,15,32,8.10
2014,04,28,15,33,14.50
2014,04,28,15,34,19.30
2014,04,28,15,35,11.30
2014,04,28,15,36,17.70
2014,04,28,15,37,20.90
2014,04,28,15,38,19.30
2014,04,28,15,39,16.10
2014,04,28,15,40,20.90
2014,04,28,15,41,14.50
2014,04,28,15,42,9.60
2014,04,28,15,43,17.70
2014,04,28,15,44,22.50
2014,04,28,15,45,24.20
2014,04,28,15,46,17.70
2014,04,28,15,47,20.90
2014,04,28,15,48,14.50
2014,04,28,15,49,17.70
2014,04,28,15,50,19.30
2014,04,28,15,51,16.10
2014,04,28,15,52,29.00
2014,04,28,15,53,27.40
2014,04,28,15,54,24.20
2014,04,28,15,55,20.90
2014,04,28,15,56,22.50
2014,04,28,15,57,16.10
2014,04,28,15,58,19.30
2014,04,28,15,59,22.50
2014,04,28,16,00,17.70
2014,04,28,16,01,22.50
2014,04,28,16,02,20.90
2014,04,28,16,03,20.90
2014,04,28,16,04,27.40
2014,04,28,16,05,20.90
2014,04,28,16,06,22.50
2014,04,28,16,07,16.10
2014,04,28,16,08,22.50
2014,04,28,16,09,16.10
2014,04,28,16,10,20.90
2014,04,28,16,11,14.50
2014,04,28,16,12,11.30
2014,04,28,16,13,4.80
2014,04,28,16,14,11.30
2014,04,28,16,15,20.90
2014,04,28,16,16,14.50
2014,04,28,16,17,17.70
2014,04,28,16,18,9.60
2014,04,28,16,19,27.40
2014,04,28,16,20,20.90
2014,04,28,16,21,24.20
2014,04,28,16,22,29.00
2014,04,28,16,23,22.50
2014,04,28,16,24,22.50
2014,04,28,16,25,20.90
2014,04,28,16,26,25.70
2014,04,28,16,27,27.40
2014,04,28,16,28,25.70
2014,04,28,16,29,17.70
2014,04,28,16,30,20.90
2014,04,28,16,31,20.90
2014,04,28,16,32,20.90
2014,04,28,16,33,17.70
2014,04,28,16,34,22.50
2014,04,28,16,35,19.30
2014,04,28,16,36,20.90
2014,04,28,16,37,27.40
2014,04,28,16,38,25.70
2014,04,28,16,39,24.20
2014,04,28,16,40,22.50
2014,04,28,16,41,20.90
2014,04,28,16,42,16.10
2014,04,28,16,43,25.70
2014,04,28,16,44,22.50
2014,04,28,16,45,17.70
2014,04,28,16,46,16.10
2014,04,28,16,47,22.50
2014,04,28,16,48,24.20
2014,04,28,16,49,25.70
2014,04,28,16,50,25.70
2014,04,28,16,51,20.90
2014,04,28,16,52,22.50
2014,04,28,16,53,20.90
2014,04,28,16,54,24.20
2014,04,28,16,55,20.90
2014,04,28,16,56,19.30
2014,04,28,16,57,20.90
2014,04,28,16,58,17.70
2014,04,28,16,59,14.50
2014,04,28,17,00,16.10
2014,04,28,17,01,25.70
2014,04,28,17,02,24.20
2014,04,28,17,03,25.70
2014,04,28,17,04,20.90
2014,04,28,17,05,17.70
2014,04,28,17,06,11.30
2014,04,28,17,07,12.90
2014,04,28,17,08,16.10
2014,04,28,17,09,17.70
2014,04,28,17,10,22.50
2014,04,28,17,11,22.50
2014,04,28,17,12,17.70
2014,04,28,17,13,25.70
2014,04,28,17,14,17.70
2014,04,28,17,15,25.70
2014,04,28,17,16,27.40
2014,04,28,17,17,24.20
2014,04,28,17,18,22.50
2014,04,28,17,19,24.20
2014,04,28,17,20,17.70
2014,04,28,17,21,17.70
2014,04,28,17,22,19.30
2014,04,28,17,23,20.90
2014,04,28,17,24,17.70
2014,04,28,17,25,24.20
2014,04,28,17,26,19.30
2014,04,28,17,27,19.30
2014,04,28,17,28,17.70
2014,04,28,17,29,16.10
2014,04,28,17,30,17.70
2014,04,28,17,31,12.90
2014,04,28,17,32,19.30
2014,04,28,17,33,20.90
2014,04,28,17,34,25.70
2014,04,28,17,35,25.70
2014,04,28,17,36,16.10
2014,04,28,17,37,14.50
2014,04,28,17,38,9.60
2014,04,28,17,39,14.50
2014,04,28,17,40,9.60
2014,04,28,17,41,9.60
2014,04,28,17,42,19.30
2014,04,28,17,43,11.30
2014,04,28,17,44,19.30
2014,04,28,17,45,9.60
2014,04,28,17,46,11.30
2014,04,28,17,47,16.10
2014,04,28,17,48,11.30
2014,04,28,17,49,19.30
2014,04,28,17,50,9.60
2014,04,28,17,51,16.10
2014,04,28,17,52,12.90
2014,04,28,17,53,11.30
2014,04,28,17,54,8.10
2014,04,28,17,55,8.10
2014,04,28,17,56,16.10
2014,04,28,17,57,16.10
2014,04,28,17,58,11.30
2014,04,28,17,59,11.30
2014,04,28,18,00,14.50
2014,04,28,18,01,16.10
2014,04,28,18,02,9.60
2014,04,28,18,03,8.10
2014,04,28,18,04,8.10
2014,04,28,18,05,6.40
2014,04,28,18,06,8.10
2014,04,28,18,07,8.10
2014,04,28,18,08,6.40
2014,04,28,18,09,9.60
2014,04,28,18,10,16.10
2014,04,28,18,11,4.80
2014,04,28,18,12,4.80
2014,04,28,18,13,8.10
2014,04,28,18,14,4.80
2014,04,28,18,15,16.10
2014,04,28,18,16,11.30
2014,04,28,18,17,16.10
2014,04,28,18,18,11.30
2014,04,28,18,19,9.60
2014,04,28,18,20,16.10
2014,04,28,18,21,17.70
2014,04,28,18,22,17.70
2014,04,28,18,23,3.20
2014,04,28,18,24,4.80
2014,04,28,18,25,4.80
2014,04,28,18,26,11.30
2014,04,28,18,27,17.70
2014,04,28,18,28,17.70
2014,04,28,18,29,8.10
2014,04,28,18,30,9.60
2014,04,28,18,31,11.30
2014,04,28,18,32,14.50
2014,04,28,18,33,8.10
2014,04,28,18,34,8.10
2014,04,28,18,35,9.60
2014,04,28,18,36,8.10
2014,04,28,18,37,1.60
2014,04,28,18,38,8.10
2014,04,28,18,39,8.10
2014,04,28,18,40,9.60
2014,04,28,18,41,11.30
2014,04,28,18,42,19.30
2014,04,28,18,43,14.50
2014,04,28,18,44,14.50
2014,04,28,18,45,9.60
2014,04,28,18,46,12.90
2014,04,28,18,47,11.30
2014,04,28,18,48,17.70
2014,04,28,18,49,14.50
2014,04,28,18,50,6.40
2014,04,28,18,51,6.40
2014,04,28,18,52,6.40
2014,04,28,18,53,14.50
2014,04,28,18,54,8.10
2014,04,28,18,55,6.40
2014,04,28,18,56,8.10
2014,04,28,18,57,8.10
2014,04,28,18,58,9.60
2014,04,28,18,59,12.90
2014,04,28,19,00,12.90
2014,04,28,19,01,8.10
2014,04,28,19,02,16.10
2014,04,28,19,03,8.10
2014,04,28,19,04,12.90
2014,04,28,19,05,8.10
2014,04,28,19,06,11.30
2014,04,28,19,07,8.10
2014,04,28,19,08,9.60
2014,04,28,19,09,14.50
2014,04,28,19,10,6.40
2014,04,28,19,11,6.40
2014,04,28,19,12,6.40
2014,04,28,19,13,6.40
2014,04,28,19,14,11.30
2014,04,28,19,15,16.10
2014,04,28,19,16,8.10
2014,04,28,19,17,9.60
2014,04,28,19,18,11.30
2014,04,28,19,19,8.10
2014,04,28,19,20,9.60
2014,04,28,19,21,1.60
2014,04,28,19,22,3.20
2014,04,28,19,23,8.10
2014,04,28,19,24,6.40
2014,04,28,19,25,4.80
2014,04,28,19,26,4.80
2014,04,28,19,27,11.30
2014,04,28,19,28,3.20
2014,04,28,19,29,3.20
2014,04,28,19,30,8.10
2014,04,28,19,31,6.40
2014,04,28,19,32,4.80
2014,04,28,19,33,4.80
2014,04,28,19,34,1.60
2014,04,28,19,35,3.20
2014,04,28,19,36,4.80
2014,04,28,19,37,3.20
2014,04,28,19,38,4.80
2014,04,28,19,39,1.60
2014,04,28,19,40,8.10
2014,04,28,19,41,3.20
2014,04,28,19,42,4.80
2014,04,28,19,43,1.60
2014,04,28,19,44,4.80
2014,04,28,19,45,6.40
2014,04,28,19,46,9.60
2014,04,28,19,47,6.40
2014,04,28,19,48,4.80
2014,04,28,19,50,6.40
2014,04,28,19,51,6.40
2014,04,28,19,52,4.80
2014,04,28,19,53,3.20
2014,04,28,19,54,6.40
2014,04,28,19,55,3.20
2014,04,28,19,56,3.20
2014,04,28,19,57,8.10
2014,04,28,19,58,3.20
2014,04,28,19,59,6.40
2014,04,28,20,00,1.60
2014,04,28,20,01,4.80
2014,04,28,20,02,6.40
2014,04,28,20,03,4.80
2014,04,28,20,04,1.60
2014,04,28,20,05,1.60
2014,04,28,20,06,1.60
2014,04,28,20,09,3.20
2014,04,28,20,10,3.20
2014,04,28,20,11,3.20
2014,04,28,20,12,1.60
2014,04,28,20,13,1.60
2014,04,28,20,14,1.60
2014,04,28,20,15,1.60
2014,04,28,20,16,1.60
2014,04,28,20,17,4.80
2014,04,28,20,18,4.80
2014,04,28,20,20,1.60
2014,04,28,20,29,1.60
2014,04,28,20,31,3.20
2014,04,28,20,32,3.20
2014,04,28,20,34,1.60
2014,04,28,20,43,1.60
2014,04,28,20,44,1.60
2014,04,28,20,47,1.60
2014,04,28,20,49,1.60
2014,04,28,21,05,1.60
2014,04,28,21,06,1.60
2014,04,28,21,07,1.60
2014,04,28,21,12,1.60
2014,04,28,21,14,3.20
2014,04,28,21,15,3.20
2014,04,28,21,16,3.20
2014,04,28,21,17,1.60
2014,04,28,21,20,1.60
2014,04,28,21,23,1.60
2014,04,28,21,25,1.60
2014,04,28,21,28,3.20
2014,04,28,21,29,8.10
2014,04,28,21,30,8.10
2014,04,28,21,31,4.80
2014,04,28,21,32,1.60
2014,04,28,21,33,1.60
2014,04,28,21,34,4.80
2014,04,28,21,35,3.20
2014,04,28,21,36,4.80
2014,04,28,21,40,3.20
2014,04,28,21,41,1.60
2014,04,28,21,44,1.60
2014,04,28,21,50,1.60
2014,04,28,21,53,1.60
2014,04,28,21,55,1.60
2014,04,28,21,59,1.60
2014,04,28,22,01,4.80
2014,04,28,22,05,1.60
2014,04,28,22,06,6.40
2014,04,28,22,07,6.40
2014,04,28,22,08,1.60
2014,04,28,22,10,6.40
2014,04,28,22,11,3.20
2014,04,28,22,12,3.20
2014,04,28,22,13,6.40
2014,04,28,22,14,4.80
2014,04,28,22,16,1.60
2014,04,28,22,18,3.20
2014,04,28,22,19,1.60
2014,04,28,22,20,1.60
2014,04,28,22,25,3.20
2014,04,28,22,26,8.10
2014,04,28,22,27,8.10
2014,04,28,22,28,3.20
2014,04,28,22,29,4.80
2014,04,28,22,30,3.20
2014,04,28,22,33,1.60
2014,04,28,22,36,1.60
2014,04,28,22,37,1.60
2014,04,28,22,38,3.20
2014,04,28,22,39,4.80
2014,04,28,22,40,1.60
2014,04,28,22,41,1.60
2014,04,28,22,43,1.60
2014,04,28,22,44,1.60
2014,04,28,22,46,3.20
2014,04,28,22,47,1.60
2014,04,28,22,51,1.60
2014,04,28,22,54,1.60
2014,04,28,22,56,3.20
2014,04,28,22,57,1.60
2014,04,28,22,59,1.60
2014,04,28,23,00,1.60
2014,04,28,23,01,3.20
2014,04,28,23,03,4.80
2014,04,28,23,04,4.80
2014,04,28,23,15,8.10
2014,04,28,23,16,9.60
2014,04,28,23,18,4.80
2014,04,28,23,19,6.40
2014,04,28,23,21,1.60
2014,04,28,23,22,3.20
2014,04,28,23,23,4.80
2014,04,28,23,24,1.60
2014,04,28,23,26,6.40
2014,04,28,23,27,4.80
2014,04,28,23,31,4.80
2014,04,28,23,32,1.60
2014,04,28,23,33,1.60
2014,04,28,23,34,1.60
2014,04,28,23,35,4.80
2014,04,28,23,36,6.40
2014,04,28,23,37,4.80
2014,04,28,23,38,6.40
2014,04,28,23,39,8.10
2014,04,28,23,40,4.80
2014,04,28,23,41,4.80
2014,04,28,23,42,4.80
2014,04,28,23,43,4.80
2014,04,28,23,44,6.40
2014,04,28,23,45,3.20
2014,04,28,23,46,4.80
2014,04,28,23,47,1.60
2014,04,28,23,49,1.60
2014,04,28,23,50,1.60
2014,04,28,23,54,1.60
2014,04,28,23,57,1.60
2014,04,28,23,59,6.40
